Weather History for KSPG - May, 2013

Change the Weather History Date:

Saturday, May 4, 2013

  Actual Average Record
Temperature  
Mean Temperature 74 °F -  
Max Temperature 78 °F 84 °F 91 °F (1949)
Min Temperature 69 °F 69 °F 60 °F (1955)
Cooling Degree Days 8    
Growing Degree Days 24 (Base 50)    
Moisture  
Dew Point 66 °F    
Average Humidity 79    
Maximum Humidity 90    
Minimum Humidity 64    
Precipitation  
Precipitation 0.00 in - - ()
Sea Level Pressure  
Sea Level Pressure 29.74 in    
Wind  
Wind Speed 8 mph (NW)    
Max Wind Speed 20 mph    
Max Gust Speed 26 mph    
Visibility 10 miles    
Events Rain    
Averages and records for this station are not official NWS values.
T = Trace of Precipitation, MM = Missing Value Source: NWS Daily Summary

Daily Weather History Graph

Daily Weather History Graph

Search for Another Location

Airport or City:

Trip Planner

Search our weather history database for the weather conditions in past years. The results will help you decide how hot, cold, wet, or windy it might be!

Date:

Astronomy

May. 04, 2013 Rise Set
Actual Time 6:48 AM EDT 8:06 PM EDT
Civil Twilight 6:23 AM EDT 8:31 PM EDT
Nautical Twilight 5:53 AM EDT 9:01 PM EDT
Astronomical Twilight 5:23 AM EDT 9:31 PM EDT
Moon 3:18 AM EDT (5/4) 3:27 PM EDT (5/4)
Length of Visible Light 14h 07m
Length of Day
13h 18m
Waning Crescent, 27% of the Moon is Illuminated
May 4
Waning Crescent
May 9
New
May 18
First Quarter
May 25
Full
May 31
Last Quarter

Hourly Weather History & Observations

Time (EDT) Temp. Dew Point Humidity Pressure Visibility Wind Dir Wind Speed Gust Speed Precip Events Conditions
12:53 AM 73.0 °F 66.9 °F 81% 29.75 in 10.0 mi NE 9.2 mph - N/A   Mostly Cloudy
1:07 AM 73.0 °F 66.0 °F 79% 29.75 in 10.0 mi NNE 6.9 mph - N/A   Scattered Clouds
1:38 AM 72.0 °F 66.0 °F 81% 29.74 in 10.0 mi North 5.8 mph - N/A   Mostly Cloudy
1:49 AM 71.6 °F 66.2 °F 83% 29.74 in 10.0 mi North 6.9 mph - N/A   Scattered Clouds
1:53 AM 71.1 °F 66.0 °F 84% 29.73 in 10.0 mi North 5.8 mph - N/A   Partly Cloudy
2:53 AM 71.1 °F 66.0 °F 84% 29.71 in 10.0 mi North 6.9 mph - N/A   Clear
3:41 AM 70.0 °F 66.0 °F 87% 29.70 in 10.0 mi NW 5.8 mph - N/A   Mostly Cloudy
3:53 AM 70.0 °F 66.0 °F 87% 29.70 in 10.0 mi NW 5.8 mph - N/A   Overcast
4:53 AM 70.0 °F 66.0 °F 87% 29.70 in 10.0 mi NNW 4.6 mph - N/A   Scattered Clouds
5:36 AM 70.0 °F 66.0 °F 87% 29.70 in 10.0 mi NW 4.6 mph - N/A   Mostly Cloudy
5:51 AM 69.8 °F 66.2 °F 88% 29.70 in 10.0 mi WNW 4.6 mph - N/A   Overcast
5:53 AM 69.1 °F 66.0 °F 90% 29.70 in 10.0 mi WNW 4.6 mph - N/A   Overcast
6:43 AM 69.1 °F 66.0 °F 90% 29.72 in 10.0 mi NNW 5.8 mph - N/A   Scattered Clouds
6:53 AM 69.1 °F 66.0 °F 90% 29.72 in 10.0 mi NW 5.8 mph - N/A   Clear
7:15 AM 69.1 °F 66.0 °F 90% 29.73 in 10.0 mi North 5.8 mph - N/A   Mostly Cloudy
7:40 AM 69.1 °F 66.0 °F 90% 29.74 in 10.0 mi North 3.5 mph - N/A   Scattered Clouds
7:53 AM 70.0 °F 66.0 °F 87% 29.74 in 10.0 mi North 4.6 mph - N/A   Scattered Clouds
8:06 AM 70.0 °F 66.0 °F 87% 29.74 in 10.0 mi North 3.5 mph - N/A   Mostly Cloudy
8:21 AM 71.1 °F 66.0 °F 84% 29.74 in 10.0 mi North 5.8 mph - N/A   Overcast
8:53 AM 72.0 °F 66.9 °F 84% 29.74 in 10.0 mi Variable 3.5 mph - N/A   Mostly Cloudy
9:53 AM 75.0 °F 66.0 °F 73% 29.74 in 10.0 mi NW 6.9 mph - N/A   Mostly Cloudy
10:12 AM 75.0 °F 66.0 °F 73% 29.75 in 10.0 mi Variable 5.8 mph - N/A   Overcast
10:34 AM 75.9 °F 64.0 °F 67% 29.75 in 10.0 mi WNW 9.2 mph - N/A   Overcast
10:53 AM 77.0 °F 64.0 °F 64% 29.75 in 10.0 mi NW 9.2 mph - N/A   Overcast
11:53 AM 77.0 °F 64.9 °F 66% 29.76 in 10.0 mi WNW 13.8 mph 21.9 mph N/A   Overcast
12:53 PM 78.1 °F 66.0 °F 66% 29.75 in 10.0 mi NW 10.4 mph 17.3 mph N/A   Mostly Cloudy
1:53 PM 78.1 °F 66.0 °F 66% 29.74 in 10.0 mi West 15.0 mph 23.0 mph N/A   Mostly Cloudy
2:17 PM 78.1 °F 68.0 °F 71% 29.74 in 10.0 mi WNW 15.0 mph 21.9 mph N/A   Mostly Cloudy
2:43 PM 75.9 °F 66.9 °F 74% 29.74 in 10.0 mi WNW 16.1 mph - N/A   Overcast
2:53 PM 75.9 °F 66.9 °F 74% 29.74 in 10.0 mi WNW 11.5 mph 21.9 mph N/A   Overcast
3:00 PM 75.9 °F 66.9 °F 74% 29.74 in 10.0 mi West 17.3 mph 26.5 mph N/A   Overcast
3:53 PM 77.0 °F 64.9 °F 66% 29.73 in 10.0 mi WNW 15.0 mph 24.2 mph 0.00 in   Overcast
4:04 PM 77.0 °F 64.9 °F 66% 29.72 in 10.0 mi West 19.6 mph 25.3 mph N/A   Mostly Cloudy
4:53 PM 75.9 °F 66.9 °F 74% 29.73 in 10.0 mi West 15.0 mph 20.7 mph N/A   Overcast
5:53 PM 73.9 °F 68.0 °F 82% 29.73 in 7.0 mi NW 6.9 mph 18.4 mph 0.00 in Rain Light Rain
6:42 PM 75.0 °F 68.0 °F 79% 29.73 in 10.0 mi West 5.8 mph - 0.00 in   Overcast
6:53 PM 75.0 °F 68.0 °F 79% 29.73 in 10.0 mi NW 3.5 mph - 0.00 in   Overcast
7:53 PM 75.9 °F 66.9 °F 74% 29.74 in 10.0 mi NNW 4.6 mph - N/A   Mostly Cloudy
8:53 PM 75.0 °F 66.9 °F 76% 29.76 in 10.0 mi NW 6.9 mph - N/A   Partly Cloudy
9:53 PM 73.9 °F 66.0 °F 76% 29.79 in 10.0 mi NW 8.1 mph - N/A   Overcast
10:53 PM 73.0 °F 66.9 °F 81% 29.81 in 10.0 mi NW 8.1 mph - N/A   Partly Cloudy
11:14 PM 73.0 °F 68.0 °F 84% 29.82 in 10.0 mi WNW 8.1 mph - N/A   Mostly Cloudy
11:32 PM 73.0 °F 66.9 °F 81% 29.81 in 10.0 mi NNW 10.4 mph - N/A   Overcast
11:53 PM 72.0 °F 66.0 °F 81% 29.82 in 10.0 mi NW 8.1 mph - N/A   Overcast